This is the latest recevied weather packets stored in our database for station/object WX0ABE-13. If no packets are shown the sender has not sent any weather packets the latest 10 day(s).
| Time | Temp. | Humidity | Pressure | Rain* | Wind** | Luminosity | Snow |
|---|---|---|---|---|---|---|---|
| 1787760835 | 24.44° C | 62% | 1025.3 hPa | 0 mm | - | 480 W/m² | - |
| 1787760533 | 24.44° C | 64% | 1025.3 hPa | 0 mm | - | 460 W/m² | - |
| 1787760228 | 24.44° C | 65% | 1025.3 hPa | 0 mm | - | 466 W/m² | - |
| 1787759924 | 23.89° C | 67% | 1025.3 hPa | 0 mm | - | 450 W/m² | - |
| 1787759619 | 23.33° C | 66% | 1025.1 hPa | 0 mm | - | 440 W/m² | - |
| 1787759316 | 22.78° C | 70% | 1025.1 hPa | 0 mm | - | 430 W/m² | - |
| 1787759016 | 21.67° C | 71% | 1024.9 hPa | 0 mm | - | 368 W/m² | - |
| 1787758716 | 21.11° C | 75% | 1025.1 hPa | 0 mm | - | 263 W/m² | - |
| 1787758411 | 21.11° C | 75% | 1025 hPa | 0 mm | - | 116 W/m² | - |
| 1787758110 | 21.11° C | 75% | 1025.1 hPa | 0 mm | - | 162 W/m² | - |
| 1787757806 | 21.67° C | 76% | 1024.8 hPa | 0 mm | - | 438 W/m² | - |
| 1787757501 | 21.11° C | 77% | 1024.9 hPa | 0 mm | - | 274 W/m² | - |
| 1787757195 | 21.67° C | 76% | 1024.8 hPa | 0 mm | - | 387 W/m² | - |
| 1787756894 | 21.67° C | 67% | 1024.4 hPa | 0 mm | - | 357 W/m² | - |
| 1787756591 | 21.11° C | 69% | 1024.5 hPa | 0 mm | - | 441 W/m² | - |
| 1787756289 | 21.11° C | 72% | 1024.5 hPa | 0 mm | - | 153 W/m² | - |
| 1787755984 | 21.11° C | 74% | 1024.2 hPa | 0 mm | - | 158 W/m² | - |
| 1787755683 | 21.11° C | 74% | 1024.2 hPa | 0 mm | - | 180 W/m² | - |
| 1787755379 | 20.56° C | 75% | 1024.2 hPa | 0 mm | - | 139 W/m² | - |
| 1787755078 | 20.56° C | 79% | 1024 hPa | 0 mm | - | 178 W/m² | - |
| 1787754772 | 20° C | 80% | 1024 hPa | 0 mm | - | 160 W/m² | - |
| 1787754470 | 18.89° C | 82% | 1024 hPa | 0 mm | - | 143 W/m² | - |
| 1787754165 | 18.89° C | 84% | 1023.8 hPa | 0 mm | - | 123 W/m² | - |
| 1787753859 | 18.89° C | 83% | 1023.8 hPa | 0 mm | - | 70 W/m² | - |
| 1787753563 | 18.89° C | 84% | 1023.8 hPa | 0 mm | - | 37 W/m² | - |
* Rain latest hour (hover to see other rain measurements)
** Current wind speed in m/s (hover to see current wind gust speed)